Location: *
(46.1200°N, 11.2700°E)
Time: 15:58:11
(UTC+00:00)

ATLAS CENTAUR R/B - Pass Details

Date: 02 March 2021
Orbit: 475 x 670 km, 64.7° (Epoch: 30 March)

Event Time Altitude Azimuth Distance (km) Brightness Sun altitude
Rises 19:55:37 0° 250° (WSW) 2,520 5.3 -30.1°
Reaches altitude 10° 19:58:05 10° 266° (W) 1,644 4.4 -30.5°
Enters shadow 19:59:48 19° 292° (WNW) 1,198 3.7 -30.8°
